Time,TemperatureF,DewpointF,PressureIn,WindDirection,WindDirectionDegrees,WindSpeedMPH,WindSpeedGustMPH,Humidity,HourlyPrecipIn,Conditions,Clouds,dailyrainin,SolarRadiationWatts/m^2,SoftwareType,DateUTC
2013-05-03 00:00:00,61.3,43.5,30.10,ENE,67,2.0,6.0,52,0.00,,,-99.99,0,WeatherLink 6.0.0,2013-05-03 04:00:00,
2013-05-03 00:01:00,60.8,43.6,30.10,NE,52,3.0,3.0,53,0.00,,,0.00,0,Wunderground v.1.15,2013-05-03 04:01:00,
2013-05-03 00:04:00,60.8,43.6,30.10,NE,42,0.0,3.0,53,0.00,,,0.00,0,Wunderground v.1.15,2013-05-03 04:04:00,
2013-05-03 00:05:00,60.7,43.5,30.10,NE,42,1.0,3.0,53,0.00,,,0.00,0,Wunderground v.1.15,2013-05-03 04:05:00,
2013-05-03 00:06:00,60.7,43.5,30.10,NE,42,0.0,3.0,53,0.00,,,0.00,0,Wunderground v.1.15,2013-05-03 04:06:00,
2013-05-03 00:09:00,60.6,43.9,30.10,NE,42,1.0,3.0,54,0.00,,,0.00,0,Wunderground v.1.15,2013-05-03 04:09:00,
2013-05-03 00:14:00,60.4,43.7,30.10,NE,42,0.0,2.0,54,0.00,,,0.00,0,Wunderground v.1.15,2013-05-03 04:14:00,
2013-05-03 00:20:00,60.3,44.1,30.10,NE,43,2.0,2.0,55,0.00,,,0.00,0,Wunderground v.1.15,2013-05-03 04:20:00,
2013-05-03 00:25:00,60.1,43.4,30.10,NE,43,2.0,2.0,54,0.00,,,0.00,0,Wunderground v.1.15,2013-05-03 04:25:00,
2013-05-03 00:30:00,60.0,43.3,30.10,NE,50,1.0,1.0,54,0.00,,,0.00,0,Wunderground v.1.15,2013-05-03 04:30:00,
2013-05-03 00:35:00,59.9,43.7,30.10,NE,50,0.0,1.0,55,0.00,,,0.00,0,Wunderground v.1.15,2013-05-03 04:35:00,
2013-05-03 00:40:00,59.8,42.6,30.10,NE,50,0.0,1.0,53,0.00,,,0.00,0,Wunderground v.1.15,2013-05-03 04:40:00,
2013-05-03 00:46:00,59.6,42.9,30.09,NE,50,0.0,3.0,54,0.00,,,0.00,0,Wunderground v.1.15,2013-05-03 04:46:00,
2013-05-03 00:51:00,59.5,42.3,30.09,NE,49,1.0,1.0,53,0.00,,,0.00,0,Wunderground v.1.15,2013-05-03 04:51:00,
2013-05-03 00:57:00,59.5,42.3,30.09,ENE,57,0.0,2.0,53,0.00,,,0.00,0,Wunderground v.1.15,2013-05-03 04:57:00,
2013-05-03 01:00:00,59.7,43.0,30.09,NE,45,1.0,5.0,54,0.00,,,-99.99,0,WeatherLink 6.0.0,2013-05-03 05:00:00,
2013-05-03 01:02:00,59.4,41.8,30.09,ENE,57,0.0,1.0,52,0.00,,,0.00,0,Wunderground v.1.15,2013-05-03 05:02:00,
2013-05-03 01:08:00,59.4,41.8,30.09,ENE,57,0.0,1.0,52,0.00,,,0.00,0,Wunderground v.1.15,2013-05-03 05:08:00,
2013-05-03 01:13:00,59.2,42.1,30.09,ENE,57,0.0,1.0,53,0.00,,,0.00,0,Wunderground v.1.15,2013-05-03 05:13:00,
2013-05-03 01:18:00,59.0,42.4,30.09,ENE,57,1.0,2.0,54,0.00,,,0.00,0,Wunderground v.1.15,2013-05-03 05:18:00,
2013-05-03 01:23:00,58.9,41.3,30.09,ENE,57,0.0,1.0,52,0.00,,,0.00,0,Wunderground v.1.15,2013-05-03 05:23:00,
2013-05-03 01:29:00,58.7,41.1,30.09,ENE,57,0.0,2.0,52,0.00,,,0.00,0,Wunderground v.1.15,2013-05-03 05:29:00,
2013-05-03 01:30:00,59.1,42.0,30.09,ENE,67,1.0,3.0,53,0.00,,,-99.99,0,WeatherLink 6.0.0,2013-05-03 05:30:00,
2013-05-03 01:34:00,58.6,41.5,30.09,ENE,57,0.0,3.0,53,0.00,,,0.00,0,Wunderground v.1.15,2013-05-03 05:34:00,
2013-05-03 01:40:00,58.5,41.4,30.09,ENE,57,0.0,1.0,53,0.00,,,0.00,0,Wunderground v.1.15,2013-05-03 05:40:00,
2013-05-03 01:45:00,58.4,41.8,30.09,ENE,57,1.0,1.0,54,0.00,,,0.00,0,Wunderground v.1.15,2013-05-03 05:45:00,
2013-05-03 01:50:00,58.2,41.6,30.08,ENE,57,0.0,0.0,54,0.00,,,0.00,0,Wunderground v.1.15,2013-05-03 05:50:00,
2013-05-03 01:55:00,58.2,41.1,30.09,ENE,57,0.0,1.0,53,0.00,,,0.00,0,Wunderground v.1.15,2013-05-03 05:55:00,
2013-05-03 02:00:00,58.1,41.5,30.09,ENE,57,3.0,3.0,54,0.00,,,0.00,0,Wunderground v.1.15,2013-05-03 06:00:00,
2013-05-03 02:05:00,58.1,41.5,30.08,ENE,57,0.0,3.0,54,0.00,,,0.00,0,Wunderground v.1.15,2013-05-03 06:05:00,
2013-05-03 02:10:00,58.1,41.5,30.08,ENE,57,1.0,1.0,54,0.00,,,0.00,0,Wunderground v.1.15,2013-05-03 06:10:00,
2013-05-03 02:16:00,58.1,41.5,30.08,ENE,59,0.0,4.0,54,0.00,,,0.00,0,Wunderground v.1.15,2013-05-03 06:16:00,
2013-05-03 02:21:00,58.1,41.5,30.08,ENE,59,0.0,2.0,54,0.00,,,0.00,0,Wunderground v.1.15,2013-05-03 06:21:00,
2013-05-03 02:26:00,58.1,41.5,30.08,ENE,59,1.0,4.0,54,0.00,,,0.00,0,Wunderground v.1.15,2013-05-03 06:26:00,
2013-05-03 02:30:00,58.1,41.5,30.08,ENE,67,1.0,4.0,54,0.00,,,-99.99,0,WeatherLink 6.0.0,2013-05-03 06:30:00,
2013-05-03 02:31:00,58.2,41.6,30.08,ENE,67,1.0,4.0,54,0.00,,,0.00,0,Wunderground v.1.15,2013-05-03 06:31:00,
2013-05-03 02:36:00,58.2,41.6,30.08,ENE,65,1.0,4.0,54,0.00,,,0.00,0,Wunderground v.1.15,2013-05-03 06:36:00,
2013-05-03 02:41:00,58.2,41.6,30.08,ENE,65,0.0,1.0,54,0.00,,,0.00,0,Wunderground v.1.15,2013-05-03 06:41:00,
2013-05-03 02:46:00,58.2,41.6,30.08,ENE,65,2.0,3.0,54,0.00,,,0.00,0,Wunderground v.1.15,2013-05-03 06:46:00,
2013-05-03 02:51:00,58.1,42.0,30.07,ENE,65,4.0,4.0,55,0.00,,,0.00,0,Wunderground v.1.15,2013-05-03 06:51:00,
2013-05-03 02:56:00,58.1,42.0,30.07,NE,42,1.0,4.0,55,0.00,,,0.00,0,Wunderground v.1.15,2013-05-03 06:56:00,
2013-05-03 03:00:00,58.2,42.1,30.07,ENE,67,2.0,4.0,55,0.00,,,-99.99,0,WeatherLink 6.0.0,2013-05-03 07:00:00,
2013-05-03 03:01:00,58.1,42.0,30.07,NE,50,2.0,4.0,55,0.00,,,0.00,0,Wunderground v.1.15,2013-05-03 07:01:00,
2013-05-03 03:06:00,58.0,42.4,30.07,East,85,0.0,5.0,56,0.00,,,0.00,0,Wunderground v.1.15,2013-05-03 07:06:00,
2013-05-03 03:11:00,57.8,42.2,30.07,East,83,2.0,3.0,56,0.00,,,0.00,0,Wunderground v.1.15,2013-05-03 07:11:00,
2013-05-03 03:16:00,57.8,42.2,30.07,East,91,2.0,6.0,56,0.00,,,0.00,0,Wunderground v.1.15,2013-05-03 07:16:00,
2013-05-03 03:21:00,57.8,42.2,30.07,ENE,67,4.0,5.0,56,0.00,,,0.00,0,Wunderground v.1.15,2013-05-03 07:21:00,
2013-05-03 03:26:00,57.9,41.8,30.07,NE,49,4.0,5.0,55,0.00,,,0.00,0,Wunderground v.1.15,2013-05-03 07:26:00,
2013-05-03 03:30:00,57.9,41.8,30.07,East,90,2.0,6.0,55,0.00,,,-99.99,0,WeatherLink 6.0.0,2013-05-03 07:30:00,
2013-05-03 03:31:00,57.9,41.8,30.07,NE,46,2.0,4.0,55,0.00,,,0.00,0,Wunderground v.1.15,2013-05-03 07:31:00,
2013-05-03 03:36:00,58.1,41.5,30.07,NE,43,2.0,6.0,54,0.00,,,0.00,0,Wunderground v.1.15,2013-05-03 07:36:00,
2013-05-03 03:41:00,58.1,41.5,30.07,ENE,59,0.0,3.0,54,0.00,,,0.00,0,Wunderground v.1.15,2013-05-03 07:41:00,
2013-05-03 03:46:00,58.2,41.6,30.07,ENE,59,0.0,3.0,54,0.00,,,0.00,0,Wunderground v.1.15,2013-05-03 07:46:00,
2013-05-03 03:51:00,58.2,41.6,30.07,ENE,62,2.0,5.0,54,0.00,,,0.00,0,Wunderground v.1.15,2013-05-03 07:51:00,
2013-05-03 03:56:00,58.1,41.5,30.07,ENE,69,1.0,5.0,54,0.00,,,0.00,0,Wunderground v.1.15,2013-05-03 07:56:00,
2013-05-03 04:00:00,58.1,41.5,30.07,ENE,67,1.0,7.0,54,0.00,,,-99.99,0,WeatherLink 6.0.0,2013-05-03 08:00:00,
2013-05-03 04:01:00,58.1,41.5,30.07,ENE,61,3.0,7.0,54,0.00,,,0.00,0,Wunderground v.1.15,2013-05-03 08:01:00,
2013-05-03 04:06:00,58.0,41.9,30.07,NE,45,3.0,7.0,55,0.00,,,0.00,0,Wunderground v.1.15,2013-05-03 08:06:00,
2013-05-03 04:11:00,57.9,41.8,30.07,NE,52,2.0,4.0,55,0.00,,,0.00,0,Wunderground v.1.15,2013-05-03 08:11:00,
2013-05-03 04:16:00,57.9,41.3,30.07,ENE,63,4.0,7.0,54,0.00,,,0.00,0,Wunderground v.1.15,2013-05-03 08:16:00,
2013-05-03 04:21:00,57.9,41.8,30.07,NE,51,1.0,3.0,55,0.00,,,0.00,0,Wunderground v.1.15,2013-05-03 08:21:00,
2013-05-03 04:26:00,57.8,41.7,30.07,NE,44,1.0,6.0,55,0.00,,,0.00,0,Wunderground v.1.15,2013-05-03 08:26:00,
2013-05-03 04:30:00,57.9,41.3,30.07,NE,45,3.0,7.0,54,0.00,,,-99.99,0,WeatherLink 6.0.0,2013-05-03 08:30:00,
2013-05-03 04:31:00,57.9,41.8,30.07,ENE,72,2.0,5.0,55,0.00,,,0.00,0,Wunderground v.1.15,2013-05-03 08:31:00,
2013-05-03 04:36:00,57.9,41.8,30.07,ENE,72,1.0,5.0,55,0.00,,,0.00,0,Wunderground v.1.15,2013-05-03 08:36:00,
2013-05-03 04:41:00,57.8,42.2,30.07,ENE,71,2.0,2.0,56,0.00,,,0.00,0,Wunderground v.1.15,2013-05-03 08:41:00,
2013-05-03 04:46:00,57.7,42.6,30.07,ENE,71,2.0,3.0,57,0.00,,,0.00,0,Wunderground v.1.15,2013-05-03 08:46:00,
2013-05-03 04:51:00,57.6,42.0,30.07,ENE,71,0.0,3.0,56,0.00,,,0.00,0,Wunderground v.1.15,2013-05-03 08:51:00,
2013-05-03 04:56:00,57.6,42.5,30.07,ENE,71,3.0,4.0,57,0.00,,,0.00,0,Wunderground v.1.15,2013-05-03 08:56:00,
2013-05-03 05:00:00,57.8,42.7,30.07,ENE,67,2.0,5.0,57,0.00,,,-99.99,0,WeatherLink 6.0.0,2013-05-03 09:00:00,
2013-05-03 05:01:00,57.7,42.6,30.07,ENE,71,0.0,4.0,57,0.00,,,0.00,0,Wunderground v.1.15,2013-05-03 09:01:00,
2013-05-03 05:06:00,57.8,42.7,30.07,ENE,71,0.0,4.0,57,0.00,,,0.00,0,Wunderground v.1.15,2013-05-03 09:06:00,
2013-05-03 05:11:00,57.8,43.1,30.07,ENE,71,2.0,2.0,58,0.00,,,0.00,0,Wunderground v.1.15,2013-05-03 09:11:00,
2013-05-03 05:16:00,57.8,43.1,30.07,ENE,71,0.0,3.0,58,0.00,,,0.00,0,Wunderground v.1.15,2013-05-03 09:16:00,
2013-05-03 05:21:00,57.9,43.7,30.07,ENE,71,1.0,3.0,59,0.00,,,0.00,0,Wunderground v.1.15,2013-05-03 09:21:00,
2013-05-03 05:26:00,57.8,43.6,30.07,ENE,71,2.0,3.0,59,0.00,,,0.00,0,Wunderground v.1.15,2013-05-03 09:26:00,
2013-05-03 05:30:00,57.8,43.6,30.07,ENE,67,1.0,5.0,59,0.00,,,-99.99,0,WeatherLink 6.0.0,2013-05-03 09:30:00,
2013-05-03 05:31:00,57.8,43.6,30.07,ENE,71,3.0,3.0,59,0.00,,,0.00,0,Wunderground v.1.15,2013-05-03 09:31:00,
2013-05-03 05:36:00,57.8,43.6,30.07,ENE,70,1.0,5.0,59,0.00,,,0.00,0,Wunderground v.1.15,2013-05-03 09:36:00,
2013-05-03 05:41:00,57.8,44.0,30.08,ENE,70,1.0,1.0,60,0.00,,,0.00,0,Wunderground v.1.15,2013-05-03 09:41:00,
2013-05-03 05:46:00,57.8,44.0,30.08,ENE,70,0.0,3.0,60,0.00,,,0.00,0,Wunderground v.1.15,2013-05-03 09:46:00,
2013-05-03 05:51:00,57.8,44.0,30.07,ENE,69,2.0,4.0,60,0.00,,,0.00,0,Wunderground v.1.15,2013-05-03 09:51:00,
2013-05-03 05:56:00,57.7,43.9,30.08,ENE,69,1.0,4.0,60,0.00,,,0.00,0,Wunderground v.1.15,2013-05-03 09:56:00,
2013-05-03 06:00:00,57.8,44.4,30.08,ENE,67,1.0,5.0,61,0.00,,,-99.99,0,WeatherLink 6.0.0,2013-05-03 10:00:00,
2013-05-03 06:01:00,57.6,44.2,30.08,ENE,69,1.0,4.0,61,0.00,,,0.00,0,Wunderground v.1.15,2013-05-03 10:01:00,
2013-05-03 06:06:00,57.6,44.2,30.08,ENE,70,0.0,4.0,61,0.00,,,0.00,0,Wunderground v.1.15,2013-05-03 10:06:00,
2013-05-03 06:11:00,57.6,44.2,30.08,ENE,57,0.0,2.0,61,0.00,,,0.00,0,Wunderground v.1.15,2013-05-03 10:11:00,
2013-05-03 06:16:00,57.7,44.8,30.08,NNE,28,1.0,6.0,62,0.00,,,0.00,0,Wunderground v.1.15,2013-05-03 10:16:00,
2013-05-03 06:21:00,57.6,44.7,30.08,ENE,71,2.0,4.0,62,0.00,,,0.00,0,Wunderground v.1.15,2013-05-03 10:21:00,
2013-05-03 06:26:00,57.5,44.6,30.08,ENE,75,2.0,5.0,62,0.00,,,0.00,0,Wunderground v.1.15,2013-05-03 10:26:00,
2013-05-03 06:30:00,57.6,45.1,30.08,ENE,67,2.0,7.0,63,0.00,,,-99.99,0,WeatherLink 6.0.0,2013-05-03 10:30:00,
2013-05-03 06:31:00,57.6,45.1,30.08,ENE,75,0.0,2.0,63,0.00,,,0.00,5,Wunderground v.1.15,2013-05-03 10:31:00,
2013-05-03 06:36:00,57.5,45.0,30.08,ENE,75,0.0,3.0,63,0.00,,,0.00,16,Wunderground v.1.15,2013-05-03 10:36:00,
2013-05-03 06:41:00,57.4,44.9,30.08,ENE,75,3.0,3.0,63,0.00,,,0.00,26,Wunderground v.1.15,2013-05-03 10:41:00,
2013-05-03 06:46:00,57.5,45.0,30.08,ENE,75,2.0,3.0,63,0.00,,,0.00,32,Wunderground v.1.15,2013-05-03 10:46:00,
2013-05-03 06:51:00,57.6,45.1,30.09,ENE,75,2.0,3.0,63,0.00,,,0.00,42,Wunderground v.1.15,2013-05-03 10:51:00,
2013-05-03 06:56:00,57.8,45.3,30.09,ENE,74,0.0,4.0,63,0.00,,,0.00,53,Wunderground v.1.15,2013-05-03 10:56:00,
2013-05-03 07:00:00,57.6,45.1,30.09,ENE,67,1.0,7.0,63,0.00,,,-99.99,36,WeatherLink 6.0.0,2013-05-03 11:00:00,
2013-05-03 07:01:00,58.0,45.5,30.09,East,84,2.0,4.0,63,0.00,,,0.00,70,Wunderground v.1.15,2013-05-03 11:01:00,
2013-05-03 07:06:00,58.1,45.6,30.09,East,85,0.0,4.0,63,0.00,,,0.00,93,Wunderground v.1.15,2013-05-03 11:06:00,
2013-05-03 07:11:00,58.4,45.8,30.09,East,85,0.0,1.0,63,0.00,,,0.00,79,Wunderground v.1.15,2013-05-03 11:11:00,
2013-05-03 07:16:00,58.7,46.5,30.09,East,85,0.0,3.0,64,0.00,,,0.00,97,Wunderground v.1.15,2013-05-03 11:16:00,
2013-05-03 07:21:00,59.2,46.2,30.09,East,85,0.0,0.0,62,0.00,,,0.00,114,Wunderground v.1.15,2013-05-03 11:21:00,
2013-05-03 07:26:00,59.8,46.3,30.09,ENE,76,0.0,4.0,61,0.00,,,0.00,155,Wunderground v.1.15,2013-05-03 11:26:00,
2013-05-03 07:30:00,58.9,45.5,30.09,East,90,1.0,4.0,61,0.00,,,-99.99,113,WeatherLink 6.0.0,2013-05-03 11:30:00,
2013-05-03 07:31:00,60.3,46.8,30.09,ESE,102,1.0,3.0,61,0.00,,,0.00,142,Wunderground v.1.15,2013-05-03 11:31:00,
2013-05-03 07:36:00,60.6,46.2,30.09,ENE,65,0.0,8.0,59,0.00,,,0.00,139,Wunderground v.1.15,2013-05-03 11:36:00,
2013-05-03 07:41:00,60.7,46.3,30.09,ESE,114,2.0,4.0,59,0.00,,,0.00,148,Wunderground v.1.15,2013-05-03 11:41:00,
2013-05-03 07:46:00,60.7,46.3,30.09,ESE,114,2.0,4.0,59,0.00,,,0.00,141,Wunderground v.1.15,2013-05-03 11:46:00,
2013-05-03 07:51:00,60.9,46.5,30.09,SE,132,2.0,5.0,59,0.00,,,0.00,97,Wunderground v.1.15,2013-05-03 11:51:00,
2013-05-03 07:56:00,61.0,46.6,30.09,SE,132,1.0,5.0,59,0.00,,,0.00,111,Wunderground v.1.15,2013-05-03 11:56:00,
2013-05-03 08:00:00,60.8,46.4,30.09,ESE,112,1.0,8.0,59,0.00,,,-99.99,122,WeatherLink 6.0.0,2013-05-03 12:00:00,
2013-05-03 08:01:00,61.0,46.1,30.09,East,98,1.0,3.0,58,0.00,,,0.00,77,Wunderground v.1.15,2013-05-03 12:01:00,
2013-05-03 08:06:00,61.0,46.6,30.09,East,98,1.0,5.0,59,0.00,,,0.00,76,Wunderground v.1.15,2013-05-03 12:06:00,
2013-05-03 08:11:00,61.0,46.6,30.09,SE,136,0.0,1.0,59,0.00,,,0.00,118,Wunderground v.1.15,2013-05-03 12:11:00,
2013-05-03 08:16:00,61.1,46.7,30.09,ESE,109,0.0,4.0,59,0.00,,,0.00,165,Wunderground v.1.15,2013-05-03 12:16:00,
2013-05-03 08:21:00,61.4,46.9,30.09,ESE,121,3.0,4.0,59,0.00,,,0.00,216,Wunderground v.1.15,2013-05-03 12:21:00,
2013-05-03 08:26:00,61.6,47.1,30.09,SE,134,0.0,4.0,59,0.00,,,0.00,248,Wunderground v.1.15,2013-05-03 12:26:00,
2013-05-03 08:30:00,61.2,46.8,30.09,SE,135,1.0,5.0,59,0.00,,,-99.99,167,WeatherLink 6.0.0,2013-05-03 12:30:00,
2013-05-03 08:31:00,62.1,47.6,30.09,SE,131,2.0,2.0,59,0.00,,,0.00,227,Wunderground v.1.15,2013-05-03 12:31:00,
2013-05-03 08:36:00,62.6,47.6,30.09,SE,138,1.0,6.0,58,0.00,,,0.00,251,Wunderground v.1.15,2013-05-03 12:36:00,
2013-05-03 08:41:00,62.8,48.3,30.09,SE,133,0.0,3.0,59,0.00,,,0.00,283,Wunderground v.1.15,2013-05-03 12:41:00,
2013-05-03 08:46:00,63.3,47.8,30.09,NNE,28,5.0,6.0,57,0.00,,,0.00,283,Wunderground v.1.15,2013-05-03 12:46:00,
2013-05-03 08:51:00,63.6,48.1,30.09,East,101,5.0,5.0,57,0.00,,,0.00,260,Wunderground v.1.15,2013-05-03 12:51:00,
2013-05-03 08:56:00,63.9,48.8,30.09,East,88,0.0,7.0,58,0.00,,,0.00,359,Wunderground v.1.15,2013-05-03 12:56:00,
2013-05-03 09:00:00,63.2,47.7,30.08,SE,135,2.0,7.0,57,0.00,,,-99.99,286,WeatherLink 6.0.0,2013-05-03 13:00:00,
2013-05-03 09:01:00,64.4,48.8,30.08,SE,143,2.0,5.0,57,0.00,,,0.00,346,Wunderground v.1.15,2013-05-03 13:01:00,
2013-05-03 09:06:00,64.7,49.1,30.08,SE,144,4.0,7.0,57,0.00,,,0.00,371,Wunderground v.1.15,2013-05-03 13:06:00,
2013-05-03 09:11:00,64.8,49.7,30.08,SSE,156,2.0,4.0,58,0.00,,,0.00,371,Wunderground v.1.15,2013-05-03 13:11:00,
2013-05-03 09:16:00,64.9,49.3,30.08,SSE,160,2.0,9.0,57,0.00,,,0.00,213,Wunderground v.1.15,2013-05-03 13:16:00,
2013-05-03 09:21:00,64.8,49.7,30.08,SE,145,2.0,6.0,58,0.00,,,0.00,186,Wunderground v.1.15,2013-05-03 13:21:00,
2013-05-03 09:30:00,64.8,50.1,30.08,SE,135,3.0,9.0,59,0.00,,,-99.99,257,WeatherLink 6.0.0,2013-05-03 13:30:00,
2013-05-03 09:35:00,64.9,50.2,30.08,SE,139,5.0,5.0,59,0.00,,,0.00,125,Wunderground v.1.15,2013-05-03 13:35:00,
2013-05-03 09:40:00,64.9,50.7,30.08,South,171,1.0,6.0,60,0.00,,,0.00,128,Wunderground v.1.15,2013-05-03 13:40:00,
2013-05-03 09:45:00,65.0,50.8,30.08,SE,136,4.0,6.0,60,0.00,,,0.00,130,Wunderground v.1.15,2013-05-03 13:45:00,
2013-05-03 09:50:00,65.0,51.2,30.08,South,187,1.0,6.0,61,0.00,,,0.00,186,Wunderground v.1.15,2013-05-03 13:50:00,
2013-05-03 09:56:00,65.1,50.9,30.08,South,179,2.0,3.0,60,0.00,,,0.00,244,Wunderground v.1.15,2013-05-03 13:56:00,
2013-05-03 10:00:00,65.0,51.2,30.08,SE,135,2.0,8.0,61,0.00,,,-99.99,180,WeatherLink 6.0.0,2013-05-03 14:00:00,
2013-05-03 10:01:00,65.6,51.8,30.08,SSE,157,0.0,3.0,61,0.00,,,0.00,638,Wunderground v.1.15,2013-05-03 14:01:00,
2013-05-03 10:06:00,66.6,51.8,30.07,East,88,2.0,4.0,59,0.00,,,0.00,703,Wunderground v.1.15,2013-05-03 14:06:00,
2013-05-03 10:11:00,67.6,52.3,30.07,East,101,3.0,3.0,58,0.00,,,0.00,578,Wunderground v.1.15,2013-05-03 14:11:00,
2013-05-03 10:16:00,68.5,52.2,30.07,SSE,166,4.0,6.0,56,0.00,,,0.00,619,Wunderground v.1.15,2013-05-03 14:16:00,
2013-05-03 10:21:00,68.3,52.5,30.08,SSE,161,4.0,8.0,57,0.00,,,0.00,557,Wunderground v.1.15,2013-05-03 14:21:00,
2013-05-03 10:26:00,68.2,52.9,30.08,SE,134,1.0,8.0,58,0.00,,,0.00,315,Wunderground v.1.15,2013-05-03 14:26:00,
2013-05-03 10:30:00,67.7,52.9,30.08,SE,135,3.0,10.0,59,0.00,,,-99.99,568,WeatherLink 6.0.0,2013-05-03 14:30:00,
2013-05-03 10:31:00,68.7,53.8,30.07,ENE,77,4.0,9.0,59,0.00,,,0.00,766,Wunderground v.1.15,2013-05-03 14:31:00,
2013-05-03 10:36:00,69.5,53.1,30.07,ENE,74,0.0,9.0,56,0.00,,,0.00,812,Wunderground v.1.15,2013-05-03 14:36:00,
2013-05-03 10:41:00,69.6,52.7,30.07,East,101,1.0,7.0,55,0.00,,,0.00,740,Wunderground v.1.15,2013-05-03 14:41:00,
2013-05-03 10:46:00,70.1,53.7,30.07,East,101,6.0,8.0,56,0.00,,,0.00,754,Wunderground v.1.15,2013-05-03 14:46:00,
2013-05-03 10:51:00,70.2,53.3,30.07,SE,146,2.0,7.0,55,0.00,,,0.00,680,Wunderground v.1.15,2013-05-03 14:51:00,
2013-05-03 10:56:00,70.1,53.7,30.07,SSE,150,2.0,8.0,56,0.00,,,0.00,580,Wunderground v.1.15,2013-05-03 14:56:00,
2013-05-03 11:00:00,69.9,53.5,30.07,East,90,3.0,10.0,56,0.00,,,-99.99,716,WeatherLink 6.0.0,2013-05-03 15:00:00,
2013-05-03 11:01:00,70.6,54.1,30.07,SE,136,2.0,4.0,56,0.00,,,0.00,696,Wunderground v.1.15,2013-05-03 15:01:00,
2013-05-03 11:06:00,70.6,53.6,30.07,SE,126,3.0,8.0,55,0.00,,,0.00,763,Wunderground v.1.15,2013-05-03 15:06:00,
2013-05-03 11:11:00,70.8,53.8,30.07,SSE,148,0.0,4.0,55,0.00,,,0.00,777,Wunderground v.1.15,2013-05-03 15:11:00,
2013-05-03 11:16:00,71.5,54.5,30.07,ESE,105,1.0,7.0,55,0.00,,,0.00,858,Wunderground v.1.15,2013-05-03 15:16:00,
2013-05-03 11:21:00,72.0,53.9,30.07,East,88,5.0,9.0,53,0.00,,,0.00,835,Wunderground v.1.15,2013-05-03 15:21:00,
2013-05-03 11:26:00,72.1,54.5,30.07,SE,134,5.0,10.0,54,0.00,,,0.00,754,Wunderground v.1.15,2013-05-03 15:26:00,
2013-05-03 11:30:00,71.4,53.4,30.07,East,90,3.0,10.0,53,0.00,,,-99.99,802,WeatherLink 6.0.0,2013-05-03 15:30:00,
2013-05-03 11:31:00,72.3,54.2,30.06,ENE,60,8.0,8.0,53,0.00,,,0.00,860,Wunderground v.1.15,2013-05-03 15:31:00,
2013-05-03 11:36:00,72.5,54.9,30.06,ESE,109,3.0,8.0,54,0.00,,,0.00,867,Wunderground v.1.15,2013-05-03 15:36:00,
2013-05-03 11:41:00,73.0,54.9,30.06,ESE,115,3.0,5.0,53,0.00,,,0.00,831,Wunderground v.1.15,2013-05-03 15:41:00,
2013-05-03 11:46:00,73.7,55.0,30.06,SW,215,4.0,9.0,52,0.00,,,0.00,861,Wunderground v.1.15,2013-05-03 15:46:00,
2013-05-03 11:51:00,74.6,55.8,30.06,East,82,7.0,9.0,52,0.00,,,0.00,814,Wunderground v.1.15,2013-05-03 15:51:00,
2013-05-03 11:56:00,74.5,55.2,30.06,ENE,61,4.0,11.0,51,0.00,,,0.00,833,Wunderground v.1.15,2013-05-03 15:56:00,
2013-05-03 12:00:00,73.6,53.8,30.06,SE,135,4.0,11.0,50,0.00,,,-99.99,839,WeatherLink 6.0.0,2013-05-03 16:00:00,
2013-05-03 12:01:00,74.6,55.8,30.06,SSE,161,4.0,10.0,52,0.00,,,0.00,886,Wunderground v.1.15,2013-05-03 16:01:00,
2013-05-03 12:06:00,75.2,55.3,30.06,SE,137,2.0,10.0,50,0.00,,,0.00,918,Wunderground v.1.15,2013-05-03 16:06:00,
2013-05-03 12:11:00,75.5,55.6,30.06,NE,55,6.0,6.0,50,0.00,,,0.00,909,Wunderground v.1.15,2013-05-03 16:11:00,
2013-05-03 12:16:00,75.4,55.5,30.06,ENE,63,2.0,14.0,50,0.00,,,0.00,812,Wunderground v.1.15,2013-05-03 16:16:00,
2013-05-03 12:21:00,75.2,55.3,30.05,NE,40,4.0,6.0,50,0.00,,,0.00,791,Wunderground v.1.15,2013-05-03 16:21:00,
2013-05-03 12:26:00,75.0,54.5,30.06,East,83,6.0,16.0,49,0.00,,,0.00,840,Wunderground v.1.15,2013-05-03 16:26:00,
2013-05-03 12:30:00,75.2,55.3,30.06,East,90,5.0,16.0,50,0.00,,,-99.99,858,WeatherLink 6.0.0,2013-05-03 16:30:00,
2013-05-03 12:31:00,74.8,55.5,30.06,East,92,6.0,9.0,51,0.00,,,0.00,580,Wunderground v.1.15,2013-05-03 16:31:00,
2013-05-03 12:36:00,74.8,54.4,30.06,East,90,8.0,11.0,49,0.00,,,0.00,628,Wunderground v.1.15,2013-05-03 16:36:00,
2013-05-03 12:41:00,74.7,54.3,30.06,NE,40,7.0,7.0,49,0.00,,,0.00,480,Wunderground v.1.15,2013-05-03 16:41:00,
2013-05-03 12:46:00,74.8,54.9,30.06,ENE,74,2.0,9.0,50,0.00,,,0.00,464,Wunderground v.1.15,2013-05-03 16:46:00,
2013-05-03 12:51:00,74.1,54.8,30.05,NE,40,5.0,10.0,51,0.00,,,0.00,689,Wunderground v.1.15,2013-05-03 16:51:00,
2013-05-03 12:56:00,73.9,55.2,30.05,SE,142,1.0,10.0,52,0.00,,,0.00,773,Wunderground v.1.15,2013-05-03 16:56:00,
2013-05-03 13:00:00,74.5,55.2,30.05,ENE,67,5.0,13.0,51,0.00,,,-99.99,616,WeatherLink 6.0.0,2013-05-03 17:00:00,
2013-05-03 13:01:00,74.2,54.9,30.05,NE,47,5.0,7.0,51,0.00,,,0.00,779,Wunderground v.1.15,2013-05-03 17:01:00,
2013-05-03 13:06:00,74.6,55.3,30.05,East,95,6.0,12.0,51,0.00,,,0.00,770,Wunderground v.1.15,2013-05-03 17:06:00,
2013-05-03 13:11:00,74.3,55.5,30.05,ESE,111,3.0,8.0,52,0.00,,,0.00,619,Wunderground v.1.15,2013-05-03 17:11:00,
2013-05-03 13:16:00,74.4,55.1,30.05,SE,136,4.0,9.0,51,0.00,,,0.00,819,Wunderground v.1.15,2013-05-03 17:16:00,
2013-05-03 13:21:00,74.8,55.5,30.05,SE,128,2.0,7.0,51,0.00,,,0.00,860,Wunderground v.1.15,2013-05-03 17:21:00,
2013-05-03 13:26:00,75.5,55.0,30.05,East,89,7.0,9.0,49,0.00,,,0.00,914,Wunderground v.1.15,2013-05-03 17:26:00,
2013-05-03 13:30:00,74.7,55.4,30.05,SE,135,5.0,12.0,51,0.00,,,-99.99,784,WeatherLink 6.0.0,2013-05-03 17:30:00,
2013-05-03 13:31:00,74.8,56.0,30.05,ESE,111,2.0,10.0,52,0.00,,,0.00,831,Wunderground v.1.15,2013-05-03 17:31:00,
2013-05-03 13:36:00,75.3,54.8,30.05,East,80,6.0,11.0,49,0.00,,,0.00,954,Wunderground v.1.15,2013-05-03 17:36:00,
2013-05-03 13:41:00,74.4,54.5,30.05,SE,126,6.0,7.0,50,0.00,,,0.00,666,Wunderground v.1.15,2013-05-03 17:41:00,
2013-05-03 13:46:00,73.8,55.1,30.05,ENE,59,10.0,15.0,52,0.00,,,0.00,675,Wunderground v.1.15,2013-05-03 17:46:00,
2013-05-03 13:51:00,74.0,54.7,30.05,East,92,5.0,10.0,51,0.00,,,0.00,967,Wunderground v.1.15,2013-05-03 17:51:00,
2013-05-03 13:56:00,75.0,54.0,30.05,East,81,8.0,11.0,48,0.00,,,0.00,1002,Wunderground v.1.15,2013-05-03 17:56:00,
2013-05-03 14:00:00,74.5,53.5,30.05,East,90,5.0,15.0,48,0.00,,,-99.99,851,WeatherLink 6.0.0,2013-05-03 18:00:00,
2013-05-03 14:01:00,75.0,54.0,30.05,SE,137,3.0,10.0,48,0.00,,,0.00,919,Wunderground v.1.15,2013-05-03 18:01:00,
2013-05-03 14:06:00,74.9,53.9,30.05,ENE,71,7.0,14.0,48,0.00,,,0.00,868,Wunderground v.1.15,2013-05-03 18:06:00,
2013-05-03 14:11:00,74.3,52.8,30.05,NE,35,5.0,15.0,47,0.00,,,0.00,925,Wunderground v.1.15,2013-05-03 18:11:00,
2013-05-03 14:16:00,74.6,53.0,30.05,SE,140,3.0,16.0,47,0.00,,,0.00,911,Wunderground v.1.15,2013-05-03 18:16:00,
2013-05-03 14:21:00,75.8,53.5,30.04,ESE,113,8.0,10.0,46,0.00,,,0.00,788,Wunderground v.1.15,2013-05-03 18:21:00,
2013-05-03 14:26:00,76.0,52.5,30.05,SSE,151,4.0,16.0,44,0.00,,,0.00,905,Wunderground v.1.15,2013-05-03 18:26:00,
2013-05-03 14:30:00,75.2,53.0,30.04,SE,135,6.0,17.0,46,0.00,,,-99.99,885,WeatherLink 6.0.0,2013-05-03 18:30:00,
2013-05-03 14:31:00,76.3,52.8,30.04,South,169,4.0,5.0,44,0.00,,,0.00,888,Wunderground v.1.15,2013-05-03 18:31:00,
2013-05-03 14:36:00,76.3,52.2,30.05,East,99,5.0,14.0,43,0.00,,,0.00,867,Wunderground v.1.15,2013-05-03 18:36:00,
2013-05-03 14:41:00,75.5,52.1,30.04,North,5,3.0,10.0,44,0.00,,,0.00,881,Wunderground v.1.15,2013-05-03 18:41:00,
2013-05-03 14:46:00,75.9,53.0,30.04,SSE,150,4.0,14.0,45,0.00,,,0.00,893,Wunderground v.1.15,2013-05-03 18:46:00,
2013-05-03 14:51:00,76.7,52.5,30.04,South,177,4.0,9.0,43,0.00,,,0.00,877,Wunderground v.1.15,2013-05-03 18:51:00,
2013-05-03 14:56:00,76.8,51.3,30.04,East,90,8.0,12.0,41,0.00,,,0.00,860,Wunderground v.1.15,2013-05-03 18:56:00,
2013-05-03 15:00:00,76.2,50.1,30.04,ESE,112,6.0,16.0,40,0.00,,,-99.99,879,WeatherLink 6.0.0,2013-05-03 19:00:00,
2013-05-03 15:01:00,76.3,50.2,30.04,ESE,110,11.0,13.0,40,0.00,,,0.00,861,Wunderground v.1.15,2013-05-03 19:01:00,
2013-05-03 15:06:00,75.6,49.6,30.04,ESE,119,4.0,20.0,40,0.00,,,0.00,861,Wunderground v.1.15,2013-05-03 19:06:00,
2013-05-03 15:11:00,75.6,50.2,30.04,ENE,67,3.0,12.0,41,0.00,,,0.00,846,Wunderground v.1.15,2013-05-03 19:11:00,
2013-05-03 15:16:00,75.9,49.8,30.04,SE,130,8.0,13.0,40,0.00,,,0.00,837,Wunderground v.1.15,2013-05-03 19:16:00,
2013-05-03 15:21:00,76.1,50.0,30.04,ESE,107,8.0,9.0,40,0.00,,,0.00,835,Wunderground v.1.15,2013-05-03 19:21:00,
2013-05-03 15:26:00,76.7,49.9,30.04,East,93,5.0,9.0,39,0.00,,,0.00,830,Wunderground v.1.15,2013-05-03 19:26:00,
2013-05-03 15:30:00,76.0,48.6,30.04,SE,135,6.0,20.0,38,0.00,,,-99.99,841,WeatherLink 6.0.0,2013-05-03 19:30:00,
2013-05-03 15:31:00,76.2,48.7,30.04,East,100,8.0,14.0,38,0.00,,,0.00,803,Wunderground v.1.15,2013-05-03 19:31:00,
2013-05-03 15:36:00,75.3,47.9,30.03,East,98,9.0,15.0,38,0.00,,,0.00,809,Wunderground v.1.15,2013-05-03 19:36:00,
2013-05-03 15:41:00,75.4,47.3,30.03,ENE,59,4.0,12.0,37,0.00,,,0.00,795,Wunderground v.1.15,2013-05-03 19:41:00,
2013-05-03 15:46:00,75.7,46.8,30.03,East,87,5.0,16.0,36,0.00,,,0.00,761,Wunderground v.1.15,2013-05-03 19:46:00,
2013-05-03 15:51:00,75.8,46.9,30.03,ESE,116,1.0,9.0,36,0.00,,,0.00,765,Wunderground v.1.15,2013-05-03 19:51:00,
2013-05-03 15:56:00,76.4,45.9,30.03,NNE,13,8.0,15.0,34,0.00,,,0.00,754,Wunderground v.1.15,2013-05-03 19:56:00,
2013-05-03 16:00:00,75.7,46.1,30.03,East,90,6.0,16.0,35,0.00,,,-99.99,773,WeatherLink 6.0.0,2013-05-03 20:00:00,
2013-05-03 16:01:00,75.5,45.9,30.03,East,90,9.0,12.0,35,0.00,,,0.00,754,Wunderground v.1.15,2013-05-03 20:01:00,
2013-05-03 16:07:00,75.5,45.9,30.03,SSE,161,8.0,14.0,35,0.00,,,0.00,759,Wunderground v.1.15,2013-05-03 20:07:00,
2013-05-03 16:12:00,75.5,44.4,30.03,South,184,4.0,8.0,33,0.00,,,0.00,729,Wunderground v.1.15,2013-05-03 20:12:00,
2013-05-03 16:17:00,75.4,46.6,30.03,East,86,8.0,13.0,36,0.00,,,0.00,722,Wunderground v.1.15,2013-05-03 20:17:00,
2013-05-03 16:22:00,75.7,45.3,30.02,East,87,2.0,14.0,34,0.00,,,0.00,701,Wunderground v.1.15,2013-05-03 20:22:00,
2013-05-03 16:27:00,76.2,45.0,30.03,ENE,57,3.0,14.0,33,0.00,,,0.00,675,Wunderground v.1.15,2013-05-03 20:27:00,
2013-05-03 16:30:00,75.6,43.7,30.03,East,90,6.0,16.0,32,0.00,,,-99.99,721,WeatherLink 6.0.0,2013-05-03 20:30:00,
2013-05-03 16:32:00,75.4,43.5,30.03,SSE,163,3.0,12.0,32,0.00,,,0.00,694,Wunderground v.1.15,2013-05-03 20:32:00,
2013-05-03 16:37:00,75.1,42.4,30.02,East,88,7.0,15.0,31,0.00,,,0.00,629,Wunderground v.1.15,2013-05-03 20:37:00,
2013-05-03 16:42:00,75.2,41.6,30.03,ESE,102,3.0,9.0,30,0.00,,,0.00,647,Wunderground v.1.15,2013-05-03 20:42:00,
2013-05-03 16:47:00,74.8,39.5,30.02,ENE,64,7.0,14.0,28,0.00,,,0.00,633,Wunderground v.1.15,2013-05-03 20:47:00,
2013-05-03 16:52:00,74.0,37.9,30.03,ENE,63,5.0,14.0,27,0.00,,,0.00,564,Wunderground v.1.15,2013-05-03 20:52:00,
2013-05-03 16:57:00,74.1,38.0,30.03,SSE,148,7.0,15.0,27,0.00,,,0.00,577,Wunderground v.1.15,2013-05-03 20:57:00,
2013-05-03 17:00:00,74.7,38.5,30.02,East,90,7.0,22.0,27,0.00,,,-99.99,612,WeatherLink 6.0.0,2013-05-03 21:00:00,
2013-05-03 17:02:00,74.5,37.3,30.02,SE,136,8.0,13.0,26,0.00,,,0.00,561,Wunderground v.1.15,2013-05-03 21:02:00,
2013-05-03 17:07:00,74.7,35.5,30.02,East,88,11.0,16.0,24,0.00,,,0.00,577,Wunderground v.1.15,2013-05-03 21:07:00,
2013-05-03 17:12:00,74.8,35.6,30.02,SSE,154,0.0,13.0,24,0.00,,,0.00,545,Wunderground v.1.15,2013-05-03 21:12:00,
2013-05-03 17:17:00,74.9,36.7,30.02,East,92,8.0,13.0,25,0.00,,,0.00,520,Wunderground v.1.15,2013-05-03 21:17:00,
2013-05-03 17:22:00,75.1,36.9,30.02,SE,126,8.0,13.0,25,0.00,,,0.00,557,Wunderground v.1.15,2013-05-03 21:22:00,
2013-05-03 17:27:00,75.1,35.8,30.02,ESE,119,11.0,14.0,24,0.00,,,0.00,503,Wunderground v.1.15,2013-05-03 21:27:00,
2013-05-03 17:30:00,74.9,35.7,30.02,East,90,7.0,16.0,24,0.00,,,-99.99,534,WeatherLink 6.0.0,2013-05-03 21:30:00,
2013-05-03 17:32:00,74.9,34.6,30.02,East,85,7.0,18.0,23,0.00,,,0.00,496,Wunderground v.1.15,2013-05-03 21:32:00,
2013-05-03 17:37:00,74.7,35.5,30.02,ENE,68,2.0,18.0,24,0.00,,,0.00,446,Wunderground v.1.15,2013-05-03 21:37:00,
2013-05-03 17:42:00,74.6,34.3,30.02,ENE,78,7.0,15.0,23,0.00,,,0.00,485,Wunderground v.1.15,2013-05-03 21:42:00,
2013-05-03 17:47:00,74.6,34.3,30.02,SSE,157,5.0,15.0,23,0.00,,,0.00,410,Wunderground v.1.15,2013-05-03 21:47:00,
2013-05-03 17:52:00,74.7,33.3,30.02,ENE,65,10.0,10.0,22,0.00,,,0.00,422,Wunderground v.1.15,2013-05-03 21:52:00,
2013-05-03 17:57:00,74.9,33.5,30.02,East,99,5.0,10.0,22,0.00,,,0.00,353,Wunderground v.1.15,2013-05-03 21:57:00,
2013-05-03 18:00:00,74.7,32.1,30.02,SE,135,6.0,18.0,21,0.00,,,-99.99,432,WeatherLink 6.0.0,2013-05-03 22:00:00,
2013-05-03 18:02:00,74.9,31.1,30.02,East,94,6.0,10.0,20,0.00,,,0.00,315,Wunderground v.1.15,2013-05-03 22:02:00,
2013-05-03 18:07:00,74.5,30.8,30.02,East,98,9.0,18.0,20,0.00,,,0.00,306,Wunderground v.1.15,2013-05-03 22:07:00,
2013-05-03 18:12:00,74.3,31.8,30.02,ESE,103,2.0,8.0,21,0.00,,,0.00,269,Wunderground v.1.15,2013-05-03 22:12:00,
2013-05-03 18:17:00,74.1,31.6,30.02,SSE,157,11.0,16.0,21,0.00,,,0.00,267,Wunderground v.1.15,2013-05-03 22:17:00,
2013-05-03 18:22:00,74.1,30.4,30.02,SSE,164,1.0,9.0,20,0.00,,,0.00,257,Wunderground v.1.15,2013-05-03 22:22:00,
2013-05-03 18:27:00,74.3,33.0,30.02,ESE,104,3.0,9.0,22,0.00,,,0.00,216,Wunderground v.1.15,2013-05-03 22:27:00,
2013-05-03 18:30:00,74.3,31.8,30.02,SE,135,5.0,18.0,21,0.00,,,-99.99,264,WeatherLink 6.0.0,2013-05-03 22:30:00,
2013-05-03 18:32:00,74.1,31.6,30.02,East,91,5.0,11.0,21,0.00,,,0.00,204,Wunderground v.1.15,2013-05-03 22:32:00,
2013-05-03 18:37:00,73.7,31.3,30.02,East,86,8.0,14.0,21,0.00,,,0.00,197,Wunderground v.1.15,2013-05-03 22:37:00,
2013-05-03 18:42:00,73.5,31.1,30.02,East,90,8.0,9.0,21,0.00,,,0.00,176,Wunderground v.1.15,2013-05-03 22:42:00,
2013-05-03 18:47:00,73.3,31.0,30.02,ESE,115,3.0,11.0,21,0.00,,,0.00,130,Wunderground v.1.15,2013-05-03 22:47:00,
2013-05-03 18:52:00,73.2,32.1,30.02,NE,38,11.0,11.0,22,0.00,,,0.00,121,Wunderground v.1.15,2013-05-03 22:52:00,
2013-05-03 18:57:00,72.9,31.8,30.02,NE,40,0.0,16.0,22,0.00,,,0.00,95,Wunderground v.1.15,2013-05-03 22:57:00,
2013-05-03 19:00:00,73.4,31.1,30.02,East,90,6.0,16.0,21,0.00,,,-99.99,151,WeatherLink 6.0.0,2013-05-03 23:00:00,
2013-05-03 19:02:00,72.7,30.5,30.02,ESE,105,4.0,15.0,21,0.00,,,0.00,125,Wunderground v.1.15,2013-05-03 23:02:00,
2013-05-03 19:07:00,72.7,30.5,30.02,East,85,15.0,15.0,21,0.00,,,0.00,123,Wunderground v.1.15,2013-05-03 23:07:00,
2013-05-03 19:12:00,72.7,31.6,30.02,ENE,65,7.0,11.0,22,0.00,,,0.00,132,Wunderground v.1.15,2013-05-03 23:12:00,
2013-05-03 19:17:00,72.7,32.7,30.02,ESE,107,4.0,11.0,23,0.00,,,0.00,130,Wunderground v.1.15,2013-05-03 23:17:00,
2013-05-03 19:22:00,72.6,31.5,30.02,ESE,123,4.0,8.0,22,0.00,,,0.00,120,Wunderground v.1.15,2013-05-03 23:22:00,
2013-05-03 19:27:00,72.4,30.2,30.02,East,92,7.0,14.0,21,0.00,,,0.00,107,Wunderground v.1.15,2013-05-03 23:27:00,
2013-05-03 19:30:00,72.6,31.5,30.02,East,90,6.0,15.0,22,0.00,,,-99.99,121,WeatherLink 6.0.0,2013-05-03 23:30:00,
2013-05-03 19:32:00,72.3,31.3,30.02,ESE,117,4.0,11.0,22,0.00,,,0.00,98,Wunderground v.1.15,2013-05-03 23:32:00,
2013-05-03 19:37:00,72.2,31.2,30.02,ENE,60,10.0,13.0,22,0.00,,,0.00,70,Wunderground v.1.15,2013-05-03 23:37:00,
2013-05-03 19:42:00,71.9,32.1,30.02,East,93,2.0,9.0,23,0.00,,,0.00,62,Wunderground v.1.15,2013-05-03 23:42:00,
2013-05-03 19:47:00,71.7,33.0,30.02,ESE,109,5.0,10.0,24,0.00,,,0.00,53,Wunderground v.1.15,2013-05-03 23:47:00,
2013-05-03 19:52:00,71.5,32.8,30.02,East,85,2.0,9.0,24,0.00,,,0.00,40,Wunderground v.1.15,2013-05-03 23:52:00,
2013-05-03 19:57:00,71.1,34.5,30.02,SE,134,3.0,13.0,26,0.00,,,0.00,35,Wunderground v.1.15,2013-05-03 23:57:00,
2013-05-03 20:00:00,71.7,35.9,30.02,East,90,5.0,13.0,27,0.00,,,-99.99,56,WeatherLink 6.0.0,2013-05-04 00:00:00,
2013-05-03 20:02:00,70.7,35.1,30.02,ENE,57,5.0,8.0,27,0.00,,,0.00,30,Wunderground v.1.15,2013-05-04 00:02:00,
2013-05-03 20:07:00,70.3,34.7,30.02,North,355,1.0,11.0,27,0.00,,,0.00,25,Wunderground v.1.15,2013-05-04 00:07:00,
2013-05-03 20:12:00,70.0,36.3,30.02,East,79,1.0,8.0,29,0.00,,,0.00,21,Wunderground v.1.15,2013-05-04 00:12:00,
2013-05-03 20:17:00,69.8,36.1,30.02,ENE,61,7.0,13.0,29,0.00,,,0.00,18,Wunderground v.1.15,2013-05-04 00:17:00,
2013-05-03 20:22:00,69.6,36.8,30.03,ESE,105,8.0,8.0,30,0.00,,,0.00,14,Wunderground v.1.15,2013-05-04 00:22:00,
2013-05-03 20:27:00,69.2,36.4,30.03,ENE,77,4.0,11.0,30,0.00,,,0.00,11,Wunderground v.1.15,2013-05-04 00:27:00,
2013-05-03 20:30:00,69.9,37.9,30.03,ENE,67,4.0,13.0,31,0.00,,,-99.99,19,WeatherLink 6.0.0,2013-05-04 00:30:00,
2013-05-03 20:32:00,69.1,37.2,30.03,ENE,65,2.0,7.0,31,0.00,,,0.00,5,Wunderground v.1.15,2013-05-04 00:32:00,
2013-05-03 20:37:00,68.9,37.0,30.03,ENE,58,8.0,11.0,31,0.00,,,0.00,0,Wunderground v.1.15,2013-05-04 00:37:00,
2013-05-03 20:42:00,68.6,37.5,30.03,East,81,5.0,9.0,32,0.00,,,0.00,0,Wunderground v.1.15,2013-05-04 00:42:00,
2013-05-03 20:47:00,68.2,38.0,30.03,ENE,58,7.0,9.0,33,0.00,,,0.00,0,Wunderground v.1.15,2013-05-04 00:47:00,
2013-05-03 20:52:00,67.9,38.5,30.03,NE,46,3.0,8.0,34,0.00,,,0.00,0,Wunderground v.1.15,2013-05-04 00:52:00,
2013-05-03 20:57:00,67.7,38.3,30.03,East,85,2.0,8.0,34,0.00,,,0.00,0,Wunderground v.1.15,2013-05-04 00:57:00,
2013-05-03 21:00:00,68.4,39.7,30.03,East,90,3.0,11.0,35,0.00,,,-99.99,0,WeatherLink 6.0.0,2013-05-04 01:00:00,
2013-05-03 21:02:00,67.5,38.9,30.03,NE,54,3.0,6.0,35,0.00,,,0.00,0,Wunderground v.1.15,2013-05-04 01:02:00,
2013-05-03 21:07:00,67.3,38.7,30.03,NE,50,1.0,8.0,35,0.00,,,0.00,0,Wunderground v.1.15,2013-05-04 01:07:00,
2013-05-03 21:12:00,67.2,39.3,30.03,NE,41,6.0,9.0,36,0.00,,,0.00,0,Wunderground v.1.15,2013-05-04 01:12:00,
2013-05-03 21:17:00,67.1,39.2,30.03,NE,51,2.0,9.0,36,0.00,,,0.00,0,Wunderground v.1.15,2013-05-04 01:17:00,
2013-05-03 21:22:00,66.8,39.7,30.03,ENE,59,1.0,6.0,37,0.00,,,0.00,0,Wunderground v.1.15,2013-05-04 01:22:00,
2013-05-03 21:27:00,66.5,39.4,30.03,NE,41,3.0,7.0,37,0.00,,,0.00,0,Wunderground v.1.15,2013-05-04 01:27:00,
2013-05-03 21:30:00,67.1,39.9,30.03,ENE,67,3.0,9.0,37,0.00,,,-99.99,0,WeatherLink 6.0.0,2013-05-04 01:30:00,
2013-05-03 21:32:00,66.3,39.2,30.03,East,83,3.0,7.0,37,0.00,,,0.00,0,Wunderground v.1.15,2013-05-04 01:32:00,
2013-05-03 21:37:00,66.1,39.7,30.03,ENE,67,2.0,7.0,38,0.00,,,0.00,0,Wunderground v.1.15,2013-05-04 01:37:00,
2013-05-03 21:42:00,66.0,39.7,30.04,East,84,2.0,5.0,38,0.00,,,0.00,0,Wunderground v.1.15,2013-05-04 01:42:00,
2013-05-03 21:47:00,65.7,40.1,30.04,East,80,2.0,5.0,39,0.00,,,0.00,0,Wunderground v.1.15,2013-05-04 01:47:00,
2013-05-03 21:52:00,65.4,40.4,30.04,East,96,2.0,2.0,40,0.00,,,0.00,0,Wunderground v.1.15,2013-05-04 01:52:00,
2013-05-03 21:57:00,65.1,40.2,30.04,East,96,5.0,6.0,40,0.00,,,0.00,0,Wunderground v.1.15,2013-05-04 01:57:00,
2013-05-03 22:00:00,65.7,40.7,30.04,East,90,2.0,7.0,40,0.00,,,-99.99,0,WeatherLink 6.0.0,2013-05-04 02:00:00,
2013-05-03 22:02:00,65.0,40.1,30.04,ENE,61,2.0,5.0,40,0.00,,,0.00,0,Wunderground v.1.15,2013-05-04 02:02:00,
2013-05-03 22:07:00,65.0,40.7,30.04,NE,52,2.0,5.0,41,0.00,,,0.00,0,Wunderground v.1.15,2013-05-04 02:07:00,
2013-05-03 22:12:00,65.0,40.7,30.04,NE,49,5.0,8.0,41,0.00,,,0.00,0,Wunderground v.1.15,2013-05-04 02:12:00,
2013-05-03 22:17:00,65.1,40.8,30.04,NE,55,5.0,9.0,41,0.00,,,0.00,0,Wunderground v.1.15,2013-05-04 02:17:00,
2013-05-03 22:22:00,65.1,41.4,30.04,East,86,2.0,3.0,42,0.00,,,0.00,0,Wunderground v.1.15,2013-05-04 02:22:00,
2013-05-03 22:27:00,64.8,41.2,30.04,NE,37,6.0,6.0,42,0.00,,,0.00,0,Wunderground v.1.15,2013-05-04 02:27:00,
2013-05-03 22:30:00,65.0,41.3,30.04,ENE,67,2.0,9.0,42,0.00,,,-99.99,0,WeatherLink 6.0.0,2013-05-04 02:30:00,
2013-05-03 22:32:00,64.5,41.5,30.04,East,89,1.0,3.0,43,0.00,,,0.00,0,Wunderground v.1.15,2013-05-04 02:32:00,
2013-05-03 22:37:00,64.4,41.4,30.04,NE,40,5.0,8.0,43,0.00,,,0.00,0,Wunderground v.1.15,2013-05-04 02:37:00,
2013-05-03 22:42:00,64.2,41.2,30.04,East,98,1.0,5.0,43,0.00,,,0.00,0,Wunderground v.1.15,2013-05-04 02:42:00,
2013-05-03 22:47:00,64.3,41.3,30.04,ENE,73,2.0,7.0,43,0.00,,,0.00,0,Wunderground v.1.15,2013-05-04 02:47:00,
2013-05-03 22:52:00,64.2,41.2,30.04,NE,42,2.0,6.0,43,0.00,,,0.00,0,Wunderground v.1.15,2013-05-04 02:52:00,
2013-05-03 22:57:00,64.0,41.6,30.03,East,88,2.0,7.0,44,0.00,,,0.00,0,Wunderground v.1.15,2013-05-04 02:57:00,
2013-05-03 23:00:00,64.2,41.8,30.04,ENE,67,2.0,8.0,44,0.00,,,-99.99,0,WeatherLink 6.0.0,2013-05-04 03:00:00,
2013-05-03 23:02:00,63.6,41.3,30.04,NE,47,4.0,5.0,44,0.00,,,0.00,0,Wunderground v.1.15,2013-05-04 03:02:00,
2013-05-03 23:07:00,63.3,41.6,30.04,ENE,59,2.0,7.0,45,0.00,,,0.00,0,Wunderground v.1.15,2013-05-04 03:07:00,
2013-05-03 23:12:00,63.0,41.9,30.03,ENE,66,3.0,5.0,46,0.00,,,0.00,0,Wunderground v.1.15,2013-05-04 03:12:00,
2013-05-03 23:17:00,62.8,42.3,30.03,NE,47,2.0,5.0,47,0.00,,,0.00,0,Wunderground v.1.15,2013-05-04 03:17:00,
2013-05-03 23:22:00,62.7,42.7,30.03,ENE,63,4.0,6.0,48,0.00,,,0.00,0,Wunderground v.1.15,2013-05-04 03:22:00,
2013-05-03 23:27:00,62.6,42.6,30.03,NE,36,4.0,7.0,48,0.00,,,0.00,0,Wunderground v.1.15,2013-05-04 03:27:00,
2013-05-03 23:30:00,63.0,43.5,30.03,NE,45,3.0,7.0,49,0.00,,,-99.99,0,WeatherLink 6.0.0,2013-05-04 03:30:00,
2013-05-03 23:32:00,62.5,43.1,30.03,NE,54,4.0,6.0,49,0.00,,,0.00,0,Wunderground v.1.15,2013-05-04 03:32:00,
2013-05-03 23:37:00,62.5,43.1,30.03,East,80,8.0,8.0,49,0.00,,,0.00,0,Wunderground v.1.15,2013-05-04 03:37:00,
2013-05-03 23:42:00,62.3,42.9,30.04,ENE,66,2.0,6.0,49,0.00,,,0.00,0,Wunderground v.1.15,2013-05-04 03:42:00,
2013-05-03 23:47:00,61.9,43.6,30.03,ENE,65,4.0,6.0,51,0.00,,,0.00,0,Wunderground v.1.15,2013-05-04 03:47:00,
2013-05-03 23:52:00,61.4,43.6,30.04,ENE,60,2.0,7.0,52,0.00,,,0.00,0,Wunderground v.1.15,2013-05-04 03:52:00,
2013-05-03 23:57:00,61.1,43.8,30.04,NE,49,3.0,8.0,53,0.00,,,0.00,0,Wunderground v.1.15,2013-05-04 03:57:00,